Regional Weather Roundup
Issued by NWS Grand Forks, ND

Home | Current Version | Previous Version | Text Only | Print | Product List | Glossary Off
Versions: 1 2 3 4 5 6 7 8 9 10 11 12 13 14 15 16 17 18 19 20 21 22 23 24 25 26 27 28 29 30 31 32 33 34 35 36 37 38 39 40 41 42 43 44 45 46 47 48 49 50

000
ASUS43 KFGF 240110
RWRFGF
PRAIRIE TO PINES  WEATHER ROUNDUP
NATIONAL WEATHER SERVICE EASTERN NORTH DAKOTA/GRAND FORKS ND
700 PM CST SUN NOV 23 2014

 **SATELLITE DATA USED TO AUGMENT SKY COVER AT AUTOMATED STATIONS**
 *****  WEATHER ACROSS EASTERN NORTH DAKOTA  *****

CITY           SKY/WX    TMP DP  RH WIND       PRES   REMARKS
GRAND FORKS    LGT SNOW  20  17  88 NW21G28   29.57R FOG     WCI   4
GRAND FRKS AFB FRZ RAIN  18  16  93 N12       29.58R WCI   5
GRAND FRKS NWS   N/A     19 N/A N/A N22         N/A  WCI   3
DEVILS LAKE    CLOUDY    16   3  57 NW20G28   29.60R WCI  -1
FARGO          CLOUDY    28  23  81 N20       29.54R WCI  15
WAHPETON ARPT  CLOUDY    28  23  80 NW22      29.54R WCI  15
$$

 ***** WEATHER ACROSS CENTRAL AND WESTERN NORTH DAKOTA  *****

CITY           SKY/WX    TMP DP  RH WIND       PRES   REMARKS
BISMARCK       CLOUDY    22  13  68 NW24G33   29.68S WCI   5
MINOT          FLURRIES  17  10  74 NW24G33   29.70R WCI  -1
JAMESTOWN      CLOUDY    17   9  70 NW22G33   29.60R WCI   0
MINOT AFB      FLURRIES  18  12  79 NW22G30   29.71R WCI   0
GARRISON         N/A     19  12  74 NW25G37   29.69S WCI   1
WILLISTON      PTCLDY    18  11  74 NW9       29.80S WCI   7
DICKINSON      CLOUDY    23  15  71 NW25G33   29.70S WCI   7
HETTINGER      CLOUDY    23  16  74 NW23G36   29.72S WCI   7
$$

 *****  OTHER AIRPORT OBSERVATIONS IN OUR AREA  *****

CITY           SKY/WX    TMP DP  RH WIND       PRES   REMARKS
WALHALLA       LGT SNOW  16  16 100 NW22G30   29.62R WCI  -2
GRAFTON AIRPOR CLOUDY    18  16  93 NW21G26   29.58R WCI   1
VALLEY CITY AR FLURRIES  19  18  93 NW23G33   29.57R WCI   2
CANDO          CLOUDY    14  10  85 N22G30    29.64S WCI  -4
CAVALIER APRT  LGT SNOW  18  14  86 N23G35    29.59S WCI   0
GWINNER        CLOUDY    27  19  74 NW26G33   29.58R WCI  11
SHEYENNE NWR     N/A     25  22  88 NW13      29.95S WCI  14
ROLLA          FLURRIES  10   7  85 NW21G31   29.64R WCI  -9
 ***** THE ABOVE OBSERVATIONS ARE NON NWS ARE NOT QUALITY
       CONTROLLED AND MAY MIS-REPORT RAIN FOR SNOW...
$$

  *****  WEATHER ACROSS NORTHERN MINNESOTA  *****

CITY           SKY/WX    TMP DP  RH WIND       PRES   REMARKS
FLAG ISLAND    CLOUDY    34  32  93 NW7       29.41R FOG
WARROAD        MIX PCPN  30  27  86 W7        29.43S WCI  23
ROSEAU         CLOUDY    27  21  80 NW15      29.45R WCI  15
HALLOCK        CLOUDY    19  16  86 NW22G30   29.54S FOG     WCI   3
THF RVR FALLS  CLOUDY    19  18  93 NW18G24   29.50R WCI   4
BAUDETTE       CLOUDY    31  29  92 NW8       29.40R FOG     WCI  23
WASKISH        CLOUDY    34  34 100 CALM      29.40S FOG
CROOKSTON      CLOUDY    19  18  93 N22G30    29.56R WCI   3
STEPHEN NDAWN    N/A     18  16  93 N20         N/A  WCI   1
GREENBUSH NDAW   N/A     21  19  93 NW17        N/A  WCI   7
$$
  *****  WEATHER ACROSS CENTRAL AND WEST MINNESOTA  *****

CITY           SKY/WX    TMP DP  RH WIND       PRES   REMARKS
FOSSTON        MIX PCPN  23  21  93 NW16      29.49R WCI  10
BEMIDJI        CLOUDY    32  31  97 W13       29.42R FOG     WCI  22
PARK RAPIDS    CLOUDY    31  25  78 NW13      29.42R WCI  21
ELBOW LAKE       N/A     29  23  79 NW16G24   29.50R WCI  17
WADENA         CLOUDY    30  25  80 NW14      29.44S WCI  20
DETROIT LAKES  MOCLDY    30  27  86 NW14      29.48R WCI  20
MOORHEAD       CLOUDY    30  27  86 N18       29.53R WCI  18
FERGUS FALLS   CLOUDY    28  21  74 NW17      29.53S WCI  16
MORRIS MN        N/A     30  25  80 NW17G24   29.50S WCI  18
STAPLES        CLOUDY    32  25  74 W14       29.43R WCI  22
$$
  *****  WEATHER ELSEWHERE ACROSS MINNESOTA  *****

CITY           SKY/WX    TMP DP  RH WIND       PRES   REMARKS
DULUTH         CLOUDY    36  34  92 NW8       29.34F FOG
INTRNTL FALLS  CLOUDY    34  31  88 NW3       29.39R
ELY            CLOUDY    34  34 100 CALM      29.36F FOG
CLOQUET        DRIZZLE   37  36  93 NW6       29.36R
WHEATON        CLOUDY    27  21  80 W20G29    29.56R WCI  13
BRAINERD       CLOUDY    37  33  85 W8        29.39F
HIBBING        CLOUDY    34  31  88 CALM      29.36F FOG
ALEXANDRIA     CLOUDY    31  24  75 NW18      29.47R WCI  19
SAINT CLOUD    CLOUDY    37  34  89 W12       29.40F
MINNEAPOLIS    CLOUDY    39  35  86 NW12      29.38F
$$

  *****  WEATHER ACROSS SOUTH DAKOTA  *****

CITY           SKY/WX    TMP DP  RH WIND       PRES   REMARKS
SIOUX FALLS    CLOUDY    33  26  75 NW24      29.54R WCI  20
BROOKINGS      NOT AVBL
WATERTOWN      CLOUDY    26  20  77 NW25G35   29.54R WCI  11
HURON          CLOUDY    28  19  69 N21G30    29.63R WCI  15
SISSETON         N/A     27  21  78 NW26G38   29.54R WCI  12
ABERDEEN       CLOUDY    25  16  68 NW20G29   29.63R WCI  11
MITCHELL       NOT AVBL
PIERRE         CLOUDY    30  19  63 NW29G37   29.67R WCI  15
MOBRIDGE       CLOUDY    26  17  68 NW20G30   29.65S WCI  12
RAPID CITY     PTCLDY    34  21  59 NW20G28   29.72S WCI  23
$$

  *****  SOME WEATHER IN NEARBY STATES *****

CITY           SKY/WX    TMP DP  RH WIND       PRES   REMARKS
GLASGOW MT     CLEAR     22  16  78 N5        29.83S WCI  16
GREAT FALLS MT CLOUDY    39  21  48 SW16      29.80F
CHEYENNE WY    MOCLDY    26  16  65 NW17G28   29.85R WCI  13
SCOTTSBLUFF NE MOCLDY    34  18  52 NW12      29.84R
OMAHA NE       CLOUDY    44  30  57 NW24G32   29.54R
DES MOINES IA  LGT RAIN  44  41  89 NW22G28   29.38S
DAVENPORT IA   CLOUDY    50  48  93 SE6       29.27F FOG
CHICAGO IL     LGT RAIN  50  49  96 E8        29.32F FOG
EAU CLAIRE WI  CLOUDY    47  45  93 CALM      29.30F FOG
LA CROSSE WI   FOG       47  45  93 CALM      29.30F VSB 1/2
$$

  *****  SOME NATIONAL WEATHER *****

CITY           SKY/WX    TMP DP  RH WIND       PRES   REMARKS
LA GUARDIA NY  MOCLDY    50  41  71 S3        30.11F
RALEIGH NC     LGT RAIN  58  55  90 SE8       29.90F FOG
ATLANTA GA     CLOUDY    62  58  86 S10       29.70S
NEW ORLEANS LA PTCLDY    67  62  84 S9        29.68S
OKLAHOMA CITY  LGT RAIN  46  41  82 NW28G39   29.64R
ALBUQUERQUE NM PTCLDY    41   9  26 NW12G22   29.98R
SALT LAKE CITY MOCLDY    37  22  54 CALM      30.23S
LOS ANGELES CA MOCLDY    74   7   7 N9        30.08R
BOISE ID       CLOUDY    41  29  62 CALM      30.22F
SEATTLE WA     PTCLDY    49  39  68 SW8       30.21R
$$

*** WEATHER ACROSS MANITOBA...SASKATCHEWAN AND ONTARIO ***
                ***ONTARIO***

CITY           SKY/WX    TMP DP  RH WIND       PRES   REMARKS
GERALDTON      FRZ DRZL  23  23 100 NE9       29.44F FOG     WCI  13
THUNDER BAY    FOG       37  37 100 NW5       29.37F VSB 3/8
SIOUX LOOKOUT  FRZ DRZL  30  30 100 NE7       29.40S FOG     WCI  23
TORONTO        CLOUDY    46  41  81 E6        29.76F
BIG TROUT LK   LGT SNOW   0  -4  85 NE8       29.79R WCI -15
PICKLE LAKE    FRZ DRZL  16  14  93 NE12G17   29.51S WCI   3
DRYDEN         CLOUDY    32  32 100 NE3       29.38F FOG
KENORA         SNOW      32  32 100 N2        29.40S VSB 1/2
$$
                *** MANITOBA***

CITY           SKY/WX    TMP DP  RH WIND       PRES   REMARKS
BRANDON        FLURRIES  10   5  79 N17       29.73R WCI  -7
DAUPHIN        FLURRIES   7   3  85 N12       29.83R WCI  -9
ISLAND LAKE    CLOUDY     0 -11  60 NE9       29.84R WCI -16
PILOT MOUND      N/A     10   7  85 NW21G32     N/A  WCI  -9
THE PAS        CLEAR      1  -8  66 NE2       29.95R
THOMPSON       PTCLDY   -13 -18  77 N8        29.97S WCI -30
WINNIPEG       FLURRIES  16  10  79 N24       29.60R WCI  -3
LYNN LAKE      CLOUDY    -9 -13  84 S5        29.90S WCI -21
CHURCHILL      CRYSTALS -15 -20  76 SW7       29.99R WCI -31
GILLAM         PTCLDY   -18 -24  76 NW6       29.97S WCI -33
$$
                ***SASKATCHEWAN***

CITY           SKY/WX    TMP DP  RH WIND       PRES   REMARKS
ESTEVAN        PTCLDY    10   7  85 NW14      29.79R WCI  -5
KINDERSLEY     NOT AVBL
LLOYDMINSTER   PTCLDY     7   5  92 SW7       29.75S WCI  -5
PRINCE ALBERT  CRYSTALS   3   0  85 E2        29.88S
REGINA         FLURRIES  10   7  85 N8        29.84R WCI  -1
YORKTON        CLEAR      1  -2  85 NW12      29.84R WCI -15
N. BATTLEFORD  CLOUDY    12  10  92 S3        29.83S
LA RONGE       PTCLDY     3   0  85 SE5       29.87F WCI  -6
SASKATOON      MOCLDY    14  10  85 CALM      29.85F
SWIFT CURRENT  CLEAR     10  10 100 E3        29.77F
$$
NOTE: THESE ARE AUTOMATED STATIONS WITH LIMITED QUALITY CONTROL
      "FAIR" INDICATES FEW OR NO CLOUDS BELOW 12,000 FEET WITH NO
      SIGNIFICANT WEATHER AND/OR OBSTRUCTIONS TO VISIBILITY.
      SKY/WX - SKY CONDITION AND SIGNIFICANT WEATHER.
      TMP - AIR TEMPERATURE.    DP   - DEWPOINT TEMPERATURE.
      RH  - RELATIVE HUMIDITY.  PRES - PRESSURE.
      HX  - HEAT INDEX.         WCI  - WIND CHILL INDEX.
$



USA.gov is the U.S. government's official web portal to all federal, state and local government web resources and services.